Find Starlink 33671

NORAD ID: 63320 Int'l Des: 2025-057 Owner: SPXS Country: US Constellation: starlink operational
LEOCIRCULAR

現在のビュー

3D地球を読み込み中...

About Starlink 33671

Starlink 33671 (NORAD 63320) is a starlink constellation satellite (v2 mini) launched Mar 18, 2025 by SPXS of US. It operates in LEO, CIRCULAR orbit with a mass of 575.00 kg.

次回通過

Passes for default location (London). Set your location on the main map for personalized predictions.

高度履歴

Loading altitude history...

軌道要素

1 63320U 25057P 26264.28188655 .00008362 00000-0 31299-3 0 9992
2 63320 43.0008 355.6157 0000813 254.7606 105.3155 15.27585030 85813
Epoch: Sep 21, 2026 • Age: 17 hours

現在のステータス

高度 482.4 km
遠地点 / 近地点 N/A
速度 7.63 km/s
衛星直下点 15.33°N, 5.76°E
打ち上げ日 Mar 18, 2025
運用期間 1.5 years
タイプ internet

技術仕様

分類 Payload
質量 575.00 kg
乾燥質量 530.00 kg
長さ 0.30 m
スパン 29.00 m
形状 ? Box + pan
製造者 SPXS
バスタイプ Starlink V2MO
フェーズステータス In Orbit
所有者/国 SPXS/US

Most Searched